| time (UTC) | temp F | wind direction | speed knots | gust knots | rain 1hr in | rain 24hr in | rain mn in | humidity % | barometer mb |
| 20260503181200 | 74 | 243 | 1.7 | 7.0 | 0.00 | 0.02 | 0.01 | 100 | 1011.1 |
| 20260503181000 | 73 | 174 | 0.9 | 5.2 | 0.01 | 0.02 | 0.01 | 100 | 1011.1 |
| 20260503180200 | 72 | 270 | 0.9 | 5.2 | 0.01 | 0.02 | 0.01 | 100 | 1011.1 |
| 20260503175936 | 72 | 285 | 1.7 | 5.2 | 0.01 | 0.02 | 0.01 | 100 | 1011.1 |
| 20260503175158 | 71 | 251 | 1.7 | 6.1 | 0.01 | 0.02 | 0.01 | 100 | 1011.1 |
| 20260503174659 | 71 | 238 | 0.9 | 6.1 | 0.01 | 0.02 | 0.01 | 100 | 1011.2 |
| 20260503174158 | 70 | 271 | 1.7 | 4.3 | 0.01 | 0.02 | 0.01 | 100 | 1011.2 |
| 20260503173701 | 70 | 349 | 1.7 | 4.3 | 0.01 | 0.02 | 0.01 | 100 | 1011.2 |
| 20260503173155 | 70 | 232 | 0.9 | 4.3 | 0.01 | 0.02 | 0.01 | 100 | 1011.2 |
| 20260503172655 | 69 | 209 | 0.9 | 4.3 | 0.01 | 0.02 | 0.01 | 100 | 1011.2 |
| 20260503172153 | 69 | 261 | 0.9 | 3.5 | 0.01 | 0.02 | 0.01 | 100 | 1011.1 |
| 20260503171652 | 69 | 333 | 0.9 | 4.3 | 0.01 | 0.02 | 0.01 | 100 | 1011.2 |
| 20260503171150 | 69 | 231 | 0.0 | 4.3 | 0.01 | 0.02 | 0.01 | 100 | 1011.2 |
| 20260503170650 | 68 | 267 | 0.0 | 0.0 | 0.00 | 0.01 | 0.00 | 100 | 1011.2 |
| 20260503170151 | 66 | 244 | 0.0 | 0.0 | 0.00 | 0.01 | 0.00 | 100 | 1011.1 |
| 20260503160147 | 56 | 239 | 0.0 | 0.0 | 0.00 | 0.01 | 0.00 | 100 | 1011.2 |
| 20260503150646 | 49 | 239 | 0.0 | 0.0 | 0.00 | 0.01 | 0.00 | 100 | 1011.5 |
| 20260503150145 | 49 | 239 | 0.0 | 0.0 | 0.00 | 0.01 | 0.00 | 100 | 1011.7 |
| 20260503140112 | 45 | 239 | 0.0 | 0.0 | 0.00 | 0.01 | 0.00 | 100 | 1011.7 |
| 20260503131102 | 45 | 239 | 0.0 | 0.0 | 0.00 | 0.01 | 0.00 | 100 | 1011.7 |
| 20260503130554 | 45 | 239 | 0.0 | 0.0 | 0.00 | 0.01 | 0.00 | 100 | 1011.7 |
| 20260503110339 | 46 | 239 | 0.0 | 0.0 | 0.00 | 0.01 | 0.00 | 100 | 1012.1 |
| 20260503110114 | 47 | 239 | 0.0 | 0.0 | 0.00 | 0.01 | 0.00 | 100 | 1012.1 |
| 20260503100228 | 48 | 239 | 0.0 | 0.0 | 0.00 | 0.01 | 0.00 | 100 | 1012.4 |
| 20260503090138 | 48 | 239 | 0.0 | 0.0 | 0.00 | 0.01 | 0.00 | 100 | 1012.9 |
| 20260503081627 | 49 | 239 | 0.0 | 0.0 | 0.00 | 0.01 | 0.00 | 100 | 1013.3 |
| 20260503081124 | 49 | 239 | 0.0 | 0.0 | 0.00 | 0.01 | 0.00 | 100 | 1013.4 |
| 20260503080623 | 49 | 239 | 0.0 | 0.0 | 0.00 | 0.01 | 0.00 | 100 | 1013.4 |
| 20260503080125 | 50 | 239 | 0.0 | 0.0 | 0.00 | 0.01 | 0.00 | 100 | 1013.4 |
| 20260503072617 | 51 | 239 | 0.0 | 0.0 | 0.00 | 0.01 | 0.00 | 100 | 1013.7 |
| 20260503072408 | 51 | 239 | 0.0 | 0.0 | 0.00 | 0.01 | 0.00 | 100 | 1013.8 |
| 20260503071622 | 51 | 239 | 0.0 | 0.0 | 0.00 | 0.01 | 0.00 | 100 | 1013.8 |
| 20260503071127 | 51 | 239 | 0.0 | 0.0 | 0.00 | 0.01 | 0.00 | 100 | 1013.7 |
| 20260503070617 | 51 | 239 | 0.0 | 0.0 | 0.00 | 0.01 | 0.00 | 100 | 1013.8 |
| 20260503070128 | 51 | 239 | 0.0 | 0.0 | 0.00 | 0.01 | 0.00 | 100 | 1013.8 |
| 20260503060257 | 54 | 239 | 0.0 | 0.0 | 0.00 | 0.01 | 0.01 | 100 | 1013.9 |
| 20260503054953 | 54 | 239 | 0.0 | 0.0 | 0.00 | 0.01 | 0.01 | 100 | 1013.8 |
| 20260503054725 | 54 | 239 | 0.0 | 0.0 | 0.00 | 0.01 | 0.01 | 100 | 1013.8 |
| 20260503054225 | 54 | 239 | 0.0 | 0.0 | 0.00 | 0.01 | 0.01 | 100 | 1013.9 |
| 20260503053437 | 55 | 239 | 0.0 | 0.0 | 0.00 | 0.01 | 0.01 | 100 | 1013.9 |
| 20260503052930 | 55 | 239 | 0.0 | 0.0 | 0.00 | 0.01 | 0.01 | 100 | 1013.8 |
| 20260503052433 | 55 | 239 | 0.0 | 0.0 | 0.00 | 0.01 | 0.01 | 100 | 1013.8 |
| 20260503051917 | 55 | 239 | 0.0 | 0.0 | 0.00 | 0.01 | 0.01 | 100 | 1013.8 |
| 20260503051411 | 55 | 239 | 0.0 | 0.0 | 0.00 | 0.01 | 0.01 | 100 | 1013.9 |
| 20260503050905 | 55 | 239 | 0.0 | 0.0 | 0.00 | 0.01 | 0.01 | 100 | 1013.9 |
| 20260503050400 | 56 | 239 | 0.0 | 0.0 | 0.00 | 0.01 | 0.01 | 100 | 1013.8 |
| 20260503045853 | 56 | 239 | 0.0 | 0.0 | 0.00 | 0.01 | 0.01 | 100 | 1013.9 |
| 20260503045348 | 56 | 239 | 0.0 | 0.0 | 0.00 | 0.01 | 0.01 | 100 | 1013.9 |
| 20260503044843 | 56 | 239 | 0.0 | 0.0 | 0.00 | 0.01 | 0.01 | 100 | 1013.9 |
| 20260503044335 | 56 | 239 | 0.0 | 0.0 | 0.00 | 0.01 | 0.01 | 100 | 1013.9 |
| 20260503043829 | 56 | 239 | 0.0 | 0.0 | 0.00 | 0.01 | 0.01 | 100 | 1013.9 |
| 20260503043324 | 57 | 239 | 0.0 | 0.0 | 0.00 | 0.01 | 0.01 | 100 | 1013.9 |
| 20260503042819 | 57 | 239 | 0.0 | 0.0 | 0.00 | 0.01 | 0.01 | 100 | 1013.8 |
| 20260503042313 | 57 | 239 | 0.0 | 0.0 | 0.00 | 0.01 | 0.01 | 100 | 1013.9 |
| 20260503042050 | 57 | 239 | 0.0 | 0.0 | 0.00 | 0.01 | 0.01 | 100 | 1013.7 |
| 20260503041300 | 58 | 239 | 0.0 | 0.0 | 0.00 | 0.01 | 0.01 | 100 | 1013.9 |
| 20260503040753 | 58 | 239 | 0.0 | 0.0 | 0.00 | 0.01 | 0.01 | 100 | 1013.8 |
| 20260503040529 | 58 | 239 | 0.0 | 0.0 | 0.00 | 0.01 | 0.01 | 100 | 1013.8 |
| 20260503035750 | 58 | 239 | 0.0 | 0.0 | 0.00 | 0.01 | 0.01 | 100 | 1013.7 |
| 20260503035235 | 59 | 239 | 0.0 | 0.0 | 0.00 | 0.01 | 0.01 | 100 | 1013.6 |
| 20260503034729 | 59 | 239 | 0.0 | 0.0 | 0.00 | 0.01 | 0.01 | 100 | 1013.6 |
| 20260503034223 | 59 | 239 | 0.0 | 0.0 | 0.00 | 0.01 | 0.01 | 100 | 1013.6 |
| 20260503033717 | 59 | 239 | 0.0 | 0.0 | 0.00 | 0.01 | 0.01 | 100 | 1013.6 |
| 20260503033212 | 60 | 239 | 0.0 | 0.0 | 0.00 | 0.01 | 0.01 | 100 | 1013.7 |
| 20260503032705 | 60 | 229 | 0.0 | 0.0 | 0.00 | 0.01 | 0.01 | 100 | 1013.7 |
| 20260503032203 | 61 | 278 | 0.0 | 0.0 | 0.00 | 0.01 | 0.01 | 100 | 1013.6 |
| 20260503031704 | 61 | 273 | 0.0 | 0.0 | 0.00 | 0.01 | 0.01 | 100 | 1013.5 |
| 20260503031238 | 61 | 273 | 0.0 | 0.0 | 0.00 | 0.01 | 0.01 | 100 | 1013.5 |
| 20260503031224 | 61 | 273 | 0.0 | 0.0 | 0.00 | 0.01 | 0.01 | 100 | 1013.4 |
| 20260503030157 | 62 | 273 | 0.0 | 0.0 | 0.00 | 0.01 | 0.01 | 100 | 1013.5 |
| 20260503025657 | 62 | 273 | 0.0 | 0.0 | 0.00 | 0.01 | 0.01 | 100 | 1013.5 |
| 20260503025232 | 62 | 279 | 0.0 | 0.0 | 0.00 | 0.01 | 0.01 | 100 | 1013.5 |
| 20260503025216 | 62 | 273 | 0.0 | 0.0 | 0.00 | 0.01 | 0.01 | 100 | 1013.6 |
| 20260503024438 | 63 | 279 | 0.0 | 0.0 | 0.00 | 0.01 | 0.01 | 100 | 1013.6 |
| 20260503023659 | 63 | 281 | 0.0 | 0.0 | 0.00 | 0.01 | 0.01 | 100 | 1013.4 |
| 20260503023157 | 63 | 281 | 0.0 | 0.0 | 0.00 | 0.01 | 0.01 | 100 | 1013.4 |
| 20260503022653 | 64 | 281 | 0.0 | 0.0 | 0.00 | 0.01 | 0.01 | 100 | 1013.3 |
| 20260503022154 | 64 | 281 | 0.0 | 0.0 | 0.00 | 0.01 | 0.01 | 100 | 1013.2 |
| 20260503021944 | 64 | 281 | 0.0 | 0.0 | 0.00 | 0.01 | 0.01 | 100 | 1013.0 |
| 20260503021153 | 64 | 281 | 0.0 | 0.0 | 0.00 | 0.01 | 0.01 | 100 | 1013.1 |
| 20260503020655 | 64 | 275 | 0.0 | 0.0 | 0.00 | 0.01 | 0.01 | 100 | 1013.1 |
| 20260503020153 | 64 | 275 | 0.0 | 0.0 | 0.00 | 0.01 | 0.01 | 100 | 1013.1 |
| 20260503015944 | 64 | 320 | 0.0 | 0.0 | 0.00 | 0.01 | 0.01 | 100 | 1013.2 |
| 20260503015434 | 64 | 339 | 0.0 | 0.0 | 0.00 | 0.01 | 0.01 | 100 | 1013.3 |
| 20260503014654 | 65 | 266 | 0.0 | 3.5 | 0.00 | 0.01 | 0.01 | 100 | 1013.2 |
| 20260503014153 | 65 | 283 | 0.9 | 3.5 | 0.00 | 0.01 | 0.01 | 100 | 1013.2 |
| 20260503013941 | 65 | 291 | 0.9 | 3.5 | 0.00 | 0.01 | 0.01 | 100 | 1013.2 |
| 20260503013435 | 65 | 268 | 0.9 | 3.5 | 0.00 | 0.01 | 0.01 | 100 | 1013.3 |
| 20260503012653 | 65 | 283 | 0.9 | 5.2 | 0.00 | 0.01 | 0.01 | 100 | 1013.3 |
| 20260503012154 | 65 | 9 | 0.9 | 5.2 | 0.00 | 0.01 | 0.01 | 100 | 1013.4 |
| 20260503012006 | 65 | 342 | 0.0 | 1.7 | 0.00 | 0.01 | 0.01 | 100 | 1013.5 |
| 20260503011706 | 65 | 347 | 0.0 | 2.6 | 0.00 | 0.01 | 0.01 | 100 | 1013.4 |
| 20260503010658 | 65 | 292 | 0.0 | 0.0 | 0.00 | 0.01 | 0.01 | 100 | 1013.5 |
| 20260503010155 | 65 | 279 | 0.0 | 0.0 | 0.00 | 0.01 | 0.01 | 100 | 1013.6 |
| 20260503005649 | 64 | 321 | 0.0 | 0.0 | 0.00 | 0.01 | 0.01 | 100 | 1013.5 |
| 20260503005138 | 64 | 329 | 0.0 | 0.0 | 0.00 | 0.01 | 0.01 | 100 | 1013.6 |
| 20260503004637 | 64 | 38 | 0.0 | 0.0 | 0.00 | 0.01 | 0.01 | 100 | 1013.5 |
| 20260503004130 | 65 | 322 | 0.0 | 1.7 | 0.00 | 0.01 | 0.01 | 100 | 1013.5 |
| 20260503003626 | 65 | 265 | 0.9 | 2.6 | 0.00 | 0.01 | 0.01 | 100 | 1013.5 |
| 20260503003350 | 65 | 306 | 0.9 | 2.6 | 0.00 | 0.01 | 0.01 | 100 | 1013.4 |
| 20260503002614 | 65 | 313 | 0.9 | 3.5 | 0.00 | 0.01 | 0.01 | 100 | 1013.3 |
| 20260503002111 | 64 | 306 | 0.9 | 3.5 | 0.00 | 0.01 | 0.01 | 100 | 1013.4 |
| 20260503001612 | 64 | 343 | 0.9 | 2.6 | 0.00 | 0.01 | 0.01 | 100 | 1013.5 |
| 20260503001110 | 64 | 13 | 0.9 | 2.6 | 0.00 | 0.01 | 0.01 | 100 | 1013.5 |
| 20260503000611 | 63 | 319 | 0.9 | 2.6 | 0.00 | 0.01 | 0.01 | 100 | 1013.6 |
| 20260503000353 | 63 | 5 | 0.9 | 2.6 | 0.00 | 0.01 | 0.01 | 100 | 1013.6 |
| 20260502235614 | 63 | 298 | 0.9 | 2.6 | 0.00 | 0.01 | 0.01 | 100 | 1013.8 |
| 20260502235109 | 63 | 273 | 0.9 | 4.3 | 0.00 | 0.01 | 0.01 | 100 | 1013.7 |
| 20260502234606 | 62 | 263 | 1.7 | 4.3 | 0.00 | 0.01 | 0.01 | 100 | 1013.9 |
| 20260502234107 | 62 | 33 | 0.9 | 3.5 | 0.00 | 0.01 | 0.01 | 100 | 1013.9 |
| 20260502233613 | 62 | 319 | 1.7 | 6.1 | 0.00 | 0.01 | 0.01 | 100 | 1014.0 |
| 20260502233108 | 61 | 270 | 1.7 | 6.1 | 0.00 | 0.01 | 0.01 | 100 | 1014.1 |
| 20260502232859 | 62 | 215 | 1.7 | 6.1 | 0.00 | 0.01 | 0.01 | 100 | 1014.1 |
| 20260502232107 | 61 | 272 | 1.7 | 6.1 | 0.00 | 0.01 | 0.01 | 100 | 1014.2 |
| 20260502231605 | 61 | 242 | 0.9 | 4.3 | 0.00 | 0.01 | 0.01 | 100 | 1014.2 |
| 20260502231106 | 61 | 319 | 1.7 | 3.5 | 0.00 | 0.01 | 0.01 | 100 | 1014.3 |
| 20260502230605 | 61 | 40 | 0.9 | 3.5 | 0.00 | 0.01 | 0.01 | 100 | 1014.3 |
| 20260502230100 | 62 | 355 | 1.7 | 3.5 | 0.00 | 0.01 | 0.01 | 100 | 1014.2 |
| 20260502225552 | 62 | 302 | 1.7 | 4.3 | 0.00 | 0.01 | 0.01 | 100 | 1014.3 |
| 20260502225046 | 63 | 342 | 1.7 | 4.3 | 0.00 | 0.01 | 0.01 | 100 | 1014.2 |
| 20260502224541 | 64 | 21 | 1.7 | 6.1 | 0.00 | 0.01 | 0.01 | 100 | 1014.3 |
| 20260502224043 | 64 | 257 | 1.7 | 6.1 | 0.00 | 0.01 | 0.01 | 100 | 1014.3 |
| 20260502223528 | 63 | 291 | 1.7 | 6.1 | 0.00 | 0.01 | 0.01 | 100 | 1014.4 |
| 20260502223023 | 63 | 262 | 1.7 | 5.2 | 0.00 | 0.01 | 0.01 | 100 | 1014.4 |
| 20260502222758 | 63 | 263 | 1.7 | 5.2 | 0.00 | 0.01 | 0.01 | 100 | 1014.5 |
| 20260502222011 | 62 | 236 | 2.6 | 7.0 | 0.00 | 0.01 | 0.01 | 100 | 1014.6 |
| 20260502221504 | 63 | 235 | 2.6 | 7.8 | 0.00 | 0.01 | 0.01 | 100 | 1014.7 |
| 20260502220959 | 63 | 317 | 1.7 | 7.8 | 0.00 | 0.01 | 0.01 | 100 | 1014.8 |
| 20260502220453 | 63 | 355 | 1.7 | 4.3 | 0.00 | 0.01 | 0.01 | 100 | 1014.7 |
| 20260502215947 | 63 | 292 | 1.7 | 4.3 | 0.00 | 0.01 | 0.01 | 100 | 1014.8 |
| 20260502215704 | 63 | 298 | 1.7 | 4.3 | 0.00 | 0.01 | 0.01 | 100 | 1014.8 |
| 20260502215209 | 63 | 325 | 1.7 | 4.3 | 0.00 | 0.01 | 0.01 | 100 | 1014.8 |
| 20260502214428 | 62 | 344 | 1.7 | 4.3 | 0.00 | 0.01 | 0.01 | 100 | 1014.9 |
| 20260502214159 | 62 | 266 | 0.9 | 2.6 | 0.00 | 0.01 | 0.01 | 100 | 1014.8 |
| 20260502213711 | 61 | 355 | 0.9 | 3.5 | 0.00 | 0.01 | 0.01 | 100 | 1014.9 |
| 20260502212925 | 60 | 316 | 1.7 | 4.3 | 0.00 | 0.01 | 0.01 | 100 | 1014.9 |
| 20260502212910 | 61 | 292 | 1.7 | 3.5 | 0.00 | 0.01 | 0.01 | 100 | 1014.9 |
| 20260502211935 | 60 | 255 | 1.7 | 7.0 | 0.00 | 0.01 | 0.01 | 100 | 1015.1 |
| 20260502211915 | 60 | 28 | 1.7 | 7.0 | 0.00 | 0.01 | 0.01 | 100 | 1015.0 |
| 20260502211402 | 60 | 255 | 1.7 | 7.0 | 0.00 | 0.01 | 0.01 | 100 | 1015.1 |
| 20260502211130 | 60 | 312 | 1.7 | 3.5 | 0.00 | 0.01 | 0.01 | 100 | 1015.3 |
| 20260502210345 | 58 | 63 | 1.7 | 6.1 | 0.00 | 0.01 | 0.01 | 100 | 1015.3 |
| 20260502205834 | 58 | 269 | 1.7 | 6.1 | 0.01 | 0.01 | 0.01 | 100 | 1015.4 |
| 20260502205617 | 58 | 37 | 0.9 | 4.3 | 0.01 | 0.01 | 0.01 | 100 | 1015.3 |
| 20260502205100 | 58 | 290 | 0.9 | 4.3 | 0.01 | 0.01 | 0.01 | 100 | 1015.4 |
| 20260502204316 | 58 | 286 | 0.9 | 4.3 | 0.01 | 0.01 | 0.01 | 100 | 1015.4 |
| 20260502203841 | 58 | 263 | 0.9 | 2.6 | 0.01 | 0.01 | 0.01 | 100 | 1015.6 |
| 20260502203827 | 58 | 350 | 0.9 | 2.6 | 0.01 | 0.01 | 0.01 | 100 | 1015.4 |
| 20260502202808 | 58 | 285 | 0.0 | 2.6 | 0.01 | 0.01 | 0.01 | 100 | 1015.6 |
| 20260502202252 | 59 | 320 | 0.9 | 2.6 | 0.01 | 0.01 | 0.01 | 100 | 1015.5 |
| 20260502202038 | 59 | 226 | 0.9 | 2.6 | 0.01 | 0.01 | 0.01 | 100 | 1015.6 |
| 20260502201241 | 59 | 211 | 0.9 | 4.3 | 0.01 | 0.01 | 0.01 | 100 | 1015.8 |
| 20260502200734 | 58 | 251 | 0.0 | 4.3 | 0.01 | 0.01 | 0.01 | 100 | 1015.8 |
| 20260502200229 | 58 | 344 | 0.0 | 0.0 | 0.01 | 0.01 | 0.01 | 100 | 1015.7 |
| 20260502195722 | 58 | 344 | 0.0 | 0.0 | 0.00 | 0.00 | 0.00 | 100 | 1015.7 |
| 20260502195216 | 58 | 344 | 0.0 | 1.7 | 0.00 | 0.00 | 0.00 | 100 | 1015.8 |
| 20260502194710 | 58 | 12 | 0.9 | 2.6 | 0.00 | 0.00 | 0.00 | 100 | 1015.9 |
| 20260502194204 | 58 | 15 | 0.9 | 2.6 | 0.00 | 0.00 | 0.00 | 100 | 1016.1 |
| 20260502193700 | 59 | 15 | 0.9 | 2.6 | 0.00 | 0.00 | 0.00 | 100 | 1016.0 |
| 20260502193430 | 59 | 5 | 0.9 | 6.1 | 0.00 | 0.00 | 0.00 | 100 | 1016.3 |
| 20260502192647 | 58 | 276 | 1.7 | 6.1 | 0.00 | 0.00 | 0.00 | 100 | 1016.5 |
| 20260502192140 | 58 | 145 | 1.7 | 3.5 | 0.00 | 0.00 | 0.00 | 100 | 1015.8 |
| 20260502191634 | 58 | 258 | 1.7 | 5.2 | 0.00 | 0.00 | 0.00 | 100 | 1015.8 |
| 20260502191128 | 59 | 279 | 0.9 | 5.2 | 0.00 | 0.00 | 0.00 | 100 | 1016.0 |
| 20260502190622 | 59 | 287 | 1.7 | 3.5 | 0.00 | 0.00 | 0.00 | 100 | 1016.1 |
| 20260502190129 | 60 | 282 | 0.9 | 3.5 | 0.00 | 0.00 | 0.00 | 100 | 1016.2 |
| 20260502185611 | 60 | 284 | 0.9 | 2.6 | 0.00 | 0.00 | 0.00 | 100 | 1016.1 |
| 20260502185104 | 60 | 333 | 0.0 | 1.7 | 0.00 | 0.00 | 0.00 | 100 | 1016.2 |
| 20260502184627 | 60 | 323 | 0.9 | 2.6 | 0.00 | 0.00 | 0.00 | 100 | 1016.3 |
| 20260502184613 | 60 | 333 | 0.9 | 2.6 | 0.00 | 0.00 | 0.00 | 100 | 1016.1 |
| 20260502183547 | 60 | 0 | 0.9 | 3.5 | 0.00 | 0.00 | 0.00 | 100 | 1016.9 |
| 20260502183224 | 58 | 194 | 1.7 | 5.2 | 0.00 | 0.00 | 0.00 | 100 | 1017.1 |
| 20260502183041 | 59 | 295 | 0.9 | 3.5 | 0.00 | 0.00 | 0.00 | 100 | 1016.7 |
| 20260502182751 | 58 | 194 | 1.7 | 5.2 | 0.00 | 0.00 | 0.00 | 100 | 1017.1 |
| 20260502182627 | 59 | 290 | 0.9 | 5.2 | 0.00 | 0.00 | 0.00 | 100 | 1016.9 |